Location: *
(34.6903°N, 135.5184°E)
Time: 14:30:51
(UTC+00:00)

Daily predictions for brighter satellites

Satellite Brightness Start Highest point End
(mag) Time Altitude Azimuth Time Altitude Azimuth Time Altitude Azimuth
ATLAS 3B R/B 4.0 17:41:01 30° N 17:41:01 30° N 17:44:32 10° NNE
Atlas Centaur 2 4.2 17:46:51 24° SE 17:46:51 24° SE 17:49:43 10° ESE
ADEOS II 4.2 17:50:26 10° N 17:51:51 19° N 17:51:51 19° N
CZ-3 R/B 4.5 16:57:10 10° W 18:01:59 71° SSW 18:16:04 10° ESE
Centaur D-1AR AC-36 4.2 18:04:06 23° SSE 18:04:06 23° SSE 18:11:01 10° ESE
Cosmos 2026 Rocket 4.0 18:12:43 79° NE 18:12:43 79° NE 18:18:48 10° N
CENTAUR R/B 4.0 18:17:47 24° NNW 18:17:47 24° NNW 18:22:07 10° N
SL-4 R/B 4.1 18:28:28 19° ESE 18:28:28 19° ESE 18:29:44 10° ESE
Yuri Rocket 4.3 18:32:05 39° SSE 18:32:05 39° SSE 18:36:58 10° ESE
Hubble Space Telescope 3.5 18:34:27 11° SE 18:34:27 11° SE 18:34:42 10° SE
ADEOS 3.7 18:28:39 10° NNE 18:33:52 72° ESE 18:34:44 59° SSE
Cosmos 2369 Rocket 4.4 18:36:11 12° NNW 18:36:11 12° NNW 18:36:57 10° NNW
Cosmos 1340 4.0 18:33:59 10° N 18:37:34 39° E 18:38:06 37° E
Timation 2 Rocket 3.8 18:32:26 10° NNW 18:38:27 80° ENE 18:44:26 10° SSE
Cosmos 1315 Rocket 4.1 18:42:05 34° N 18:42:05 34° N 18:44:31 10° N
Cosmos 2242 Rocket 4.0 18:43:08 56° N 18:43:08 56° N 18:46:42 10° N
Cosmos 773 Rocket 4.4 18:44:21 46° NNW 18:44:21 46° NNW 18:48:24 10° N
ASTRO E2 3.9 18:45:12 36° SE 18:45:12 36° SE 18:47:49 10° ESE
Lacrosse 5 3.4 18:39:52 10° NNW 18:44:27 33° NE 18:49:01 10° ESE
Cosmos 1428 Rocket 4.4 18:44:30 59° WSW 18:45:13 63° W 18:51:26 10° N
Cosmos 1655 Rocket 4.1 18:42:43 15° S 18:47:55 77° E 18:54:12 10° N
CZ-2C R/B 4.0 18:45:54 10° NNE 18:50:29 35° E 18:55:08 10° SSE
TSX-5 3.2 19:08:47 82° NE 19:08:47 82° NE 19:11:50 10° NNE
Cosmos 1908 Rocket 3.4 19:04:26 10° N 19:08:47 89° E 19:13:08 10° S
PSLV R/B 3.7 19:05:25 10° N 19:09:37 49° WNW 19:09:39 49° WNW
Abrixas rocket 2.4 19:14:21 54° SSE 19:14:27 54° SE 19:17:25 10° ENE
IDEFIX/ARIANE 42P 2.7 19:10:41 10° N 19:15:47 50° WNW 19:18:00 31° SW
Cosmos 1680 Rocket 3.7 19:11:15 10° S 19:16:29 73° ESE 19:21:42 10° NNE
COSMOS 2441 4.3 19:12:22 10° N 19:17:17 85° WNW 19:22:11 10° SSW
Cosmos 923 Rocket 3.9 19:14:17 19° SSW 19:18:12 80° WNW 19:23:34 10° NNE
Cosmos 2266 Rocket 3.9 19:14:12 10° S 19:20:18 90° E 19:26:22 10° N
Cosmos 1346 Rocket 3.0 19:16:37 10° NNW 19:20:34 47° W 19:23:36 16° SSW
USA 215 3.4 19:14:37 10° NE 19:21:11 77° SE 19:26:49 15° SW
Sakura Rocket 3.9 19:21:08 29° SSW 19:22:02 32° S 19:26:28 10° SE
Meteor 1-27 Rocket 4.4 19:21:21 30° WSW 19:22:54 35° WNW 19:28:09 10° N
SeaSat 1 2.5 19:19:00 10° NNE 19:23:49 55° WNW 19:26:25 26° SW
MSX 3.8 19:19:49 10° N 19:25:31 66° WNW 19:31:10 10° SSW
Cosmos 1656 4.2 19:20:26 10° S 19:26:02 61° ESE 19:31:38 10° NNE
SJ-6F 4.3 19:22:47 10° N 19:26:59 80° WNW 19:31:10 10° SSW
Cosmos 1536 3.1 19:24:32 10° NNW 19:28:17 40° W 19:32:01 10° SSW
Atlas Centaur 2 3.6 19:29:30 22° SW 19:32:06 28° SSW 19:38:22 10° SSE
Okean O Rocket 4.2 19:33:39 10° NE 19:37:15 24° E 19:40:49 10° SSE
OAO 3 Rocket 3.1 19:37:26 25° WSW 19:40:09 80° S 19:44:49 10° E
OAO 2 Rocket 3.2 19:41:16 21° W 19:44:34 85° N 19:49:29 10° E
H-II Stage 2 3.8 19:44:03 17° SW 19:46:57 32° S 20:00:38 10° ESE
H-2A R/B 3.7 19:47:21 10° NNW 19:50:10 20° WNW 19:51:09 18° W
Cosmos 1782 Rocket 3.7 19:47:43 10° NNW 19:51:59 52° W 19:56:16 10° S
Cosmos 1743 2.7 19:50:39 10° N 19:54:34 88° E 19:58:26 10° S
PAYLOAD A 4.4 19:51:38 10° N 19:55:53 35° WNW 20:00:08 10° SW
Meteor 1-19 Rocket 4.3 19:55:35 10° S 20:01:14 90° E 20:07:04 10° N
Meteor PRIRODA 3.7 19:59:36 10° N 20:03:14 56° WNW 20:06:52 10° SSW
CZ-4B R/B 4.3 19:58:02 10° NNE 20:03:19 47° E 20:08:26 10° S
CZ-4B R/B 3.6 20:00:55 10° N 20:05:07 39° WNW 20:09:12 10° SW
SL-4 R/B 3.4 20:04:10 13° W 20:05:37 16° SW 20:07:58 10° SSW
Cosmos 2151 Rocket 4.3 20:03:55 10° N 20:08:18 59° E 20:12:42 10° SSE
Cosmos 2315 Rocket 4.0 20:02:33 10° N 20:08:45 71° W 20:14:57 10° S
BREEZE-M DEB (TANK) 2.5 20:04:21 10° WSW 20:08:51 57° NW 20:11:10 10° NE
Cosmos 1674 Rocket 4.2 20:05:46 10° S 20:10:01 59° E 20:14:16 10° NNE
Cosmos 1697 Rocket 2.8 20:06:45 10° SSW 20:12:23 88° ESE 20:18:05 10° NNE
Cosmos 1666 4.0 20:10:45 10° NW 20:13:33 20° W 20:16:21 10° SW
CZ-3C R/B 3.2 20:14:27 10° S 20:15:42 11° SSE 20:17:25 10° SE
Cosmos 2227 Rocket 2.3 20:12:48 10° NNW 20:18:31 85° ENE 20:24:10 10° SSE
Cosmos 2221 Rocket 4.2 20:15:34 10° SW 20:19:32 33° W 20:23:34 10° NNW
Meteor 2-4 Rocket 3.7 20:14:35 10° S 20:19:57 84° E 20:25:19 10° N
MOS 1-B 4.4 20:14:22 10° N 20:20:07 65° WNW 20:25:50 10° SSW
Sich 1 Rocket 4.4 20:16:15 10° NNW 20:20:10 31° W 20:24:08 10° SSW
Shenzhou-11 Module 3.8 20:19:20 10° WNW 20:21:22 18° N 20:23:24 10° NE
Cosmos 1371 Rocket 4.2 20:17:06 10° NNW 20:22:29 87° ENE 20:27:47 10° SSE
ASTRO E2 3.8 20:20:35 10° W 20:24:07 31° SSW 20:27:40 10° SE
Cosmos 2219 3.5 20:19:00 10° NNW 20:24:23 46° WSW 20:29:44 10° S
Meteor 2-9 Rocket 4.2 20:19:44 10° N 20:25:05 88° E 20:30:23 10° S
